Air Quality Table

TIMESTAMP NO2 SO2 O3 CO TEMP HUM AIRPRES WS WD NO BENZENE
2022-06-26 08:00 32.9 µg/m3 2.14 µg/m3 35.36 µg/m3 0.38 mg/m3 28.73 °C 48.49 % 1,013.43 mbar 0.71 m/s 155.58 Deg 9.65 µg/m3 0.63 µg/m3
2022-06-26 07:00 32.81 µg/m3 1.68 µg/m3 22.77 µg/m3 0.3 mg/m3 26.21 °C 54.97 % 1,032.67 mbar 1.07 m/s 222.22 Deg 12.98 µg/m3 0.63 µg/m3
2022-06-26 06:00 36.13 µg/m3 1.09 µg/m3 15.54 µg/m3 0.25 mg/m3 25.03 °C 52.8 % 1,012.34 mbar 0.76 m/s 103.98 Deg 15.13 µg/m3 0.63 µg/m3
2022-06-26 05:00 32.14 µg/m3 0.84 µg/m3 22.38 µg/m3 0.22 mg/m3 25.43 °C 49.71 % 1,012.34 mbar 0.77 m/s 222.56 Deg 10.11 µg/m3 0.63 µg/m3
2022-06-26 04:00 36.91 µg/m3 0.43 µg/m3 19.59 µg/m3 0.21 mg/m3 25.5 °C 40.88 % 1,012.09 mbar 0.58 m/s 22 Deg 11.06 µg/m3 0.63 µg/m3
2022-06-26 03:00 50 µg/m3 1.35 µg/m3 16.9 µg/m3 0.16 mg/m3 24.93 °C 38.64 % 1,011.98 mbar 0.69 m/s 165.59 Deg 9.27 µg/m3 0.63 µg/m3
2022-06-26 02:00 33.04 µg/m3 1.48 µg/m3 23.29 µg/m3 0.31 mg/m3 25.66 °C 39.83 % 1,012.07 mbar 0.89 m/s 179.18 Deg 10.09 µg/m3 0.63 µg/m3
2022-06-26 01:00 49.27 µg/m3 1.74 µg/m3 14.73 µg/m3 0.37 mg/m3 25.99 °C 55.79 % 1,012.37 mbar 0.88 m/s 135.72 Deg 19.96 µg/m3 0.63 µg/m3
2022-06-26 00:00 60.28 µg/m3 1.86 µg/m3 7.38 µg/m3 0.42 mg/m3 26.5 °C 41.72 % 1,012.71 mbar 0.82 m/s 284.72 Deg 29.27 µg/m3 0.63 µg/m3
2022-06-25 23:00 58.07 µg/m3 1.91 µg/m3 11.73 µg/m3 0.46 mg/m3 26.05 °C 36.13 % 1,012.92 mbar 0.6 m/s 160.64 Deg 38.68 µg/m3 0.63 µg/m3
2022-06-25 22:00 67.64 µg/m3 1.92 µg/m3 5.85 µg/m3 0.55 mg/m3 27.27 °C 37.37 % 1,013.17 mbar 0.7 m/s 209.62 Deg 54.8 µg/m3 0.63 µg/m3
2022-06-25 21:00 60.11 µg/m3 1.6 µg/m3 11.67 µg/m3 0.43 mg/m3 27.7 °C 35.79 % 1,008.02 mbar 0.46 m/s 128.55 Deg 32.6 µg/m3 0.63 µg/m3
2022-06-25 20:00 63.15 µg/m3 1.57 µg/m3 16.9 µg/m3 0.42 mg/m3 29.88 °C 36.54 % 1,012.60 mbar 0.57 m/s 218.59 Deg 28.72 µg/m3 0.63 µg/m3
2022-06-25 19:00 30.77 µg/m3 1.42 µg/m3 55.83 µg/m3 0.29 mg/m3 31.89 °C 29.93 % 1,012.38 mbar 1.01 m/s 244.8 Deg 10.2 µg/m3 0.63 µg/m3
2022-06-25 18:00 28.15 µg/m3 2.01 µg/m3 66.24 µg/m3 0.39 mg/m3 32.94 °C 28.49 % 1,012.32 mbar 1.49 m/s 231.4 Deg 6.84 µg/m3 0.63 µg/m3
2022-06-25 17:00 28.57 µg/m3 1.78 µg/m3 63.81 µg/m3 0.35 mg/m3 32.84 °C 26.99 % 1,012.38 mbar 1.99 m/s 234.53 Deg 9.47 µg/m3 0.63 µg/m3
2022-06-25 16:00 26.95 µg/m3 1.1 µg/m3 67.81 µg/m3 0.6 mg/m3 29.61 °C 51.94 % 1,012.88 mbar 2.65 m/s 238.45 Deg 6.68 µg/m3 0.63 µg/m3
2022-06-25 15:00 28.09 µg/m3 1.54 µg/m3 51.67 µg/m3 0.4 mg/m3 28.99 °C 57.75 % 1,012.77 mbar 2.77 m/s 192.74 Deg 11.16 µg/m3 0.63 µg/m3
2022-06-25 14:00 25.12 µg/m3 1.3 µg/m3 42.72 µg/m3 0.39 mg/m3 27.36 °C 81.55 % 1,013.42 mbar 3.12 m/s 51.67 Deg 8.39 µg/m3 0.63 µg/m3
2022-06-25 13:00 24.54 µg/m3 0.77 µg/m3 35.56 µg/m3 0.32 mg/m3 27.31 °C 82.82 % 1,013.85 mbar 3.13 m/s 55.7 Deg 10.73 µg/m3 0.63 µg/m3
2022-06-25 12:00 29.33 µg/m3 1.82 µg/m3 39.91 µg/m3 0.31 mg/m3 28.21 °C 69.34 % 1,014.13 mbar 2.67 m/s 34.95 Deg 13.7 µg/m3 0.63 µg/m3
2022-06-25 11:00 32.66 µg/m3 2.21 µg/m3 36.89 µg/m3 0.29 mg/m3 29.38 °C 55.07 % 1,014.12 mbar 2.51 m/s 195.91 Deg 15.16 µg/m3 0.63 µg/m3
2022-06-25 10:00 36.78 µg/m3 2.69 µg/m3 34.07 µg/m3 0.35 mg/m3 30.16 °C 36.76 % 1,023.05 mbar 1.55 m/s 189.93 Deg 16.32 µg/m3 0.63 µg/m3
2022-06-25 09:00 40.88 µg/m3 2.14 µg/m3 33.35 µg/m3 0.41 mg/m3 28.82 °C 38.83 % 1,013.59 mbar 1.5 m/s 66.84 Deg 22.81 µg/m3 0.63 µg/m3
2022-06-25 08:00 43.37 µg/m3 1.78 µg/m3 21.35 µg/m3 0.25 mg/m3 28.79 °C 30.8 % 1,013.33 mbar 1.03 m/s 165.38 Deg 28.05 µg/m3 0.63 µg/m3
2022-06-25 07:00 44.38 µg/m3 2.09 µg/m3 4.18 µg/m3 0.3 mg/m3 25.71 °C 36.79 % 1,013.09 mbar 19.88 m/s 174.71 Deg 77.58 µg/m3 0.63 µg/m3
2022-06-25 06:00 44.15 µg/m3 1.77 µg/m3 4.11 µg/m3 0.3 mg/m3 24.51 °C 32.13 % 1,012.73 mbar 0.52 m/s 195.23 Deg 92.71 µg/m3 0.63 µg/m3
2022-06-25 05:00 32.05 µg/m3 0.88 µg/m3 12.59 µg/m3 0.21 mg/m3 24.18 °C 33.47 % 1,012.39 mbar 1.05 m/s 227.94 Deg 37.19 µg/m3 0.63 µg/m3
2022-06-25 04:00 32.09 µg/m3 0.53 µg/m3 17.26 µg/m3 0.19 mg/m3 24.2 °C 42.16 % 1,012.17 mbar 0.43 m/s 209.28 Deg 12.29 µg/m3 0.63 µg/m3
2022-06-25 03:00 44.27 µg/m3 0.74 µg/m3 19.12 µg/m3 0.1 mg/m3 24.23 °C 53.72 % 1,012.32 mbar 0.38 m/s 210.29 Deg 18.65 µg/m3 0.63 µg/m3
2022-06-25 02:00 21.06 µg/m3 0.52 µg/m3 17.33 µg/m3 0.18 mg/m3 23.88 °C 60.52 % 1,012.43 mbar 0.54 m/s 221.48 Deg 5.81 µg/m3 0.63 µg/m3
2022-06-25 01:00 40.96 µg/m3 1.21 µg/m3 6.28 µg/m3 0.23 mg/m3 24.06 °C 63.64 % 1,012.82 mbar 0.57 m/s 244.15 Deg 22.41 µg/m3 0.63 µg/m3
2022-06-25 00:00 48.05 µg/m3 1.35 µg/m3 6.29 µg/m3 0.31 mg/m3 25.18 °C 57.17 % 1,012.91 mbar 0.68 m/s 261.17 Deg 41.65 µg/m3 0.63 µg/m3
2022-06-24 23:00 30.58 µg/m3 0.89 µg/m3 23.53 µg/m3 0.24 mg/m3 -503 °C 47.19 % 988.76 mbar 1.67 m/s 204.61 Deg 18.41 µg/m3 0.63 µg/m3
2022-06-24 22:00 32.66 µg/m3 0.86 µg/m3 22.55 µg/m3 0.26 mg/m3 25.87 °C 57.92 % 1,012.76 mbar 1.33 m/s 144.81 Deg 16.99 µg/m3 0.63 µg/m3
2022-06-24 21:00 36.38 µg/m3 0.51 µg/m3 26.4 µg/m3 0.22 mg/m3 26.15 °C 68.03 % 1,012.46 mbar 1.29 m/s 211.31 Deg 12.93 µg/m3 0.63 µg/m3
2022-06-24 20:00 28.41 µg/m3 0.34 µg/m3 34.32 µg/m3 0.17 mg/m3 26.86 °C 71.19 % 1,012.25 mbar 1.85 m/s 221.13 Deg 8.92 µg/m3 0.63 µg/m3
2022-06-24 19:00 16.33 µg/m3 0.39 µg/m3 43.16 µg/m3 0.1 mg/m3 28.58 °C 52.23 % 1,011.90 mbar 2.91 m/s 181.68 Deg 4.39 µg/m3 0.63 µg/m3
2022-06-24 18:00 12.33 µg/m3 0.69 µg/m3 42.5 µg/m3 0.09 mg/m3 29.48 °C 38.3 % 1,012.01 mbar 4.21 m/s 220.52 Deg 6.22 µg/m3 0.63 µg/m3
2022-06-24 17:00 11.19 µg/m3 0.74 µg/m3 46.11 µg/m3 0.1 mg/m3 30.13 °C 41.6 % 1,012.14 mbar 4.6 m/s 148.71 Deg 4.82 µg/m3 0.63 µg/m3
2022-06-24 16:00 12.05 µg/m3 0.91 µg/m3 58.22 µg/m3 0.1 mg/m3 30.17 °C 45.68 % 1,012.53 mbar 4.48 m/s 194.76 Deg 4.56 µg/m3 0.63 µg/m3
2022-06-24 15:00 15.34 µg/m3 1.09 µg/m3 59.86 µg/m3 0.1 mg/m3 30.61 °C 45.25 % 1,013.07 mbar 4.25 m/s 178.36 Deg 5.77 µg/m3 0.63 µg/m3
2022-06-24 14:00 18.31 µg/m3 0.96 µg/m3 52.72 µg/m3 0.11 mg/m3 31.52 °C 38.51 % 1,013.19 mbar 3.7 m/s 219.16 Deg 8.98 µg/m3 0.63 µg/m3
2022-06-24 13:00 16.05 µg/m3 1.34 µg/m3 54.21 µg/m3 0.11 mg/m3 31.35 °C 37.02 % 1,013.48 mbar 3.86 m/s 150.83 Deg 6.95 µg/m3 0.63 µg/m3
2022-06-24 12:00 17.92 µg/m3 1.39 µg/m3 58.89 µg/m3 0.11 mg/m3 31.19 °C 37.89 % 995.29 mbar 21.49 m/s 199.18 Deg 7.46 µg/m3 0.63 µg/m3
2022-06-24 11:00 13.79 µg/m3 0.64 µg/m3 62.96 µg/m3 0.12 mg/m3 30.19 °C 44.25 % 1,013.72 mbar 3.61 m/s 205.35 Deg 5.28 µg/m3 0.63 µg/m3
2022-06-24 10:00 17.16 µg/m3 0.51 µg/m3 61.17 µg/m3 0.14 mg/m3 30.02 °C 42.65 % 1,013.51 mbar 3.56 m/s 212.24 Deg 8.78 µg/m3 0.63 µg/m3

It is to be noted that the data is provisional and subject to quality assurance procedures. For validated data kindly refer your request to contact.air@era.org.mt